Regional Weather Roundup
Issued by NWS

Home | Current Version | Previous Version | Text Only | Print | Product List | Glossary On
Versions: 1 2 3 4 5 6 7 8 9 10 11 12 13 14 15 16 17 18 19 20 21 22 23 24 25 26 27 28 29 30 31 32 33 34 35 36 37 38 39 40 41 42 43 44 45 46 47 48 49 50
000
ASUS44 KOUN 031510
RWROK

WEATHER ROUNDUP FOR OKLAHOMA
NATIONAL WEATHER SERVICE NORMAN OK
1000 AM CDT MON AUG 03 2015

NOTE: "FAIR" INDICATES FEW OR NO CLOUDS BELOW 12,000 FEET WITH NO
      SIGNIFICANT WEATHER AND/OR OBSTRUCTIONS TO VISIBILITY.

OKZ001>007-009>012-014-015-017-031600-
NORTHWEST OKLAHOMA AND THE PANHANDLE

CITY           SKY/WX    TMP DP  RH WIND       PRES   REMARKS
GAGE           LGT RAIN  73  68  84 SW17      29.99S
GUYMON         SUNNY     75  64  68 S12       30.01S
ENID/WOODRING  PTSUNNY   82  66  57 SW10      29.94F
$$

OKZ016-021>023-033>039-044-045-031600-
SOUTHWEST OKLAHOMA

CITY           SKY/WX    TMP DP  RH WIND       PRES   REMARKS
LAWTON/REGL    LGT RAIN  72  68  87 SE3       29.95F FOG
LAWTON/FT SILL LGT RAIN  71  69  92 S8        29.94F
FREDERICK      CLOUDY    73  70  90 S5        29.92F
CLINTON        CLOUDY    75  67  76 S12       29.99R
HOBART         CLOUDY    72  69  90 S13       29.95F
ALTUS AFB      LGT RAIN  72  68  88 SE8       29.95S
$$

OKZ018>020-024>031-031600-
CENTRAL OKLAHOMA

CITY           SKY/WX    TMP DP  RH WIND       PRES   REMARKS
OKLAHOMA CITY  CLOUDY    76  67  73 S3        29.98S
OKC/WILEY POST PTSUNNY   79  65  62 S6        29.97S
OKC/TINKER AFB CLOUDY    78  64  63 SW8       29.97S
STILLWATER     PTSUNNY   81  66  60 SW7       29.96
GUTHRIE        PTSUNNY   80  66  62 S6        29.96F
$$

OKZ008-013-054>072-031600-
NORTHEAST OKLAHOMA

CITY           SKY/WX    TMP DP  RH WIND       PRES   REMARKS
TULSA          PTSUNNY   86  64  47 SW9       29.94S
TULSA/JONES    PTSUNNY   83  67  58 SW6       29.95S
PONCA CITY     PTSUNNY   82  68  62 SW7       29.95
BARTLESVILLE   MOSUNNY   85  68  56 S7        29.95
MUSKOGEE       MOSUNNY   82  73  74 S5        29.96F
$$

OKZ032-040>043-046>053-073>077-031600-
SOUTH CENTRAL/SOUTHEAST OKLAHOMA

CITY           SKY/WX    TMP DP  RH WIND       PRES   REMARKS
ARDMORE/DWNTWN PTSUNNY   82  63  51 CALM      29.96S
MCALESTER      MOSUNNY   86  67  52 VRB5      29.97S
$$




USA.gov is the U.S. government's official web portal to all federal, state and local government web resources and services.